SCP
0 0 0 0 0 0 0 0 0 0 -0 0 0 0 0 0 0 0 0 0 0 0 0 0 0 0 0 0 0 0 0 0 0 0 0 0 0 0 0 0 0 0 0 0 0
0 0 0 0 0 0 0 -0 -0 0 0 0 0 0 0 0 0 0 0 0 0 0 0 0 0 0 0 0 0 0 0 0 0 0 0 0 0 0 0 0 0 0 0 0 0
0 0 0 0 -0 -0 -0 -0 -0 0 0 0 0 0 0 0 0 0 0 0 0 0 0 0 0 0 0 0 0 0 0 0 0 0 0 0 0 0 0 0 0 0 0 0 0
0 0 0 -0 -0 -0 -0 -0 -0 0 0 0 0 0 0 0 0 0 0 0 0 0 0 0 0 0 0 0 0 0 0 0 0 0 0 0 0 0 0 0 0 0 0 0 0
0 0 0 -0 -0 -0 -0 -0 -0 0 0 0 0 0 0 0 0 0 0 0 0 0 0 0 0 0 0 0 0 0 0 0 0 0 0 0 0 0 0 0 0 0 0 0 0
0 0 0 0 -0 -0 -0 -0 -0 0 0 0 0 0 0 0 0 0 0 0 0 0 0 0 0 0 0 0 0 0 0 0 0 0 0 0 0 0 0 0 0 0 0 0 0
0 0 0 0 0 -0 -0 -0 0 0 0 0 0 0 0 0 0 0 0 0 0 0 0 0 0 0 0 0 0 0 0 0 0 0 0 0 0 0 0 0 0 0 0 0 0
0 0 0 0 0 0 -0 0 0 0 0 0 0 0 0 0 0 0 0 0 0 0 0 0 0 0 0 0 0 0 0 0 0 0 0 0 0 0 0 0 0 0 0 0 0
0 0 0 0 0 0 0 0 0 0 0 0 0 0 0 0 0 0 0 0 0 0 0 0 0 0 0 0 0 0 0 0 0 0 0 0 0 0 0 0 0 0 0 0 0
0 0 0 0 0 0 0 0 -0 0 0 0 0 0 0 0 0 0 0 0 0 0 0 0 0 0 0 0 0 0 0 0 0 0 0 0 0 0 0 0 0 0 0 0 0
0 0 0 0 0 0 0 0 0 0 0 0 0 0 0 0 0 0 0 0 -0 0 0 0 0 0 0 0 0 0 0 0 0 0 0 0 0 0 0 0 0 0 0 0 0
0 0 0 0 0 0 0 0 0 0 0 0 0 0 0 0 0 0 0 0 0 0 -0 0 0 0 0 0 0 0 0 0 0 0 0 0 0 0 0 0 0 0 0 0 0
0 0 0 0 0 0 0 0 0 0 0 0 0 0 0 0 0 -0 0 0 0 0 0 -0 0 0 0 0 0 0 0 0 0 0 0 0 0 0 0 0 0 0 0 0 0
0 0 0 0 0 0 0 0 0 0 0 0 0 0 0 0 0 0 0 0 0 -0 -0 -0 0 0 0 0 0 0 0 0 0 0 0 0 0 0 0 0 0 0 0 0 0
0 0 0 0 0 0 0 0 0 0 0 0 0 0 0 0 0 0 0 0 0 -0 -0 0 -0 -0 0 0 0 0 0 0 0 0 0 0 0 0 0 0 0 0 0 0 0
0 0 0 0 0 0 0 0 0 0 0 0 0 0 0 -0 -0 -0 -0 0 0 0 0 0 0 0 0 0 0 0 0 0 0 0 0 0 0 0 0 0 0 0 0 0 0
0 0 0 0 0 0 0 0 0 0 0 0 0 0 0 -0 0 -0 -0 0 0 -0 -0 -0 0 0 0 0 0 0 0 0 0 0 0 0 0 0 0 0 0 0 0 0 0
0 0 0 0 0 0 0 0 0 0 0 -0 0 -0 -0 -0 -0 -0 -0 -0 -0 -0 0 -0 0 0 0 0 0 0 0 0 0 0 0 0 0 0 0 0 0 0 0 0 0
0 0 0 0 0 0 0 0 0 0 -0 0 0 0 0 -0 -0 -0 -0 -0 -0 -0 0 0 -0 0 0 0 0 0 0 0 0 0 0 0 0 0 0 0 0 0 0 0 0
0 0 0 0 0 0 0 0 0 0 0 -0 0 0 0 -0 -0 -0 -0 -0 -0 -0 0 0 0 0 0 0 0 0 0 0 0 0 0 0 0 0 0 0 0 0 0 0 0
0 0 0 0 0 0 0 0 0 0 0 -0 0 -0 0 -0 -0 -0 -0 0 -0 -0 0 0 0 0 0 0 0 0 0 0 0 0 0 0 0 0 0 0 0 0 0 0 0
0 0 0 0 0 0 0 0 0 0 -0 0 0 -0 -0 -0 -0 -0 -0 0 -0 -0 0 0 0 0 0 0 0 0 0 0 0 0 0 0 0 0 0 0 0 0 0 0 0
0 0 0 0 0 0 0 0 0 0 -0 -0 0 0 -0 -0 -0 -0 -0 0 -0 -0 -0 0 0 0 0 0 0 0 0 0 0 0 0 0 0 0 0 0 0 0 0 0 0
0 0 0 0 0 0 0 0 0 0 -0 -0 0 0 -0 0 -0 -0 -0 -0 -0 -0 -0 0 0 0 0 0 0 0 0 0 0 0 0 0 0 0 0 0 0 0 0 0 0
0 0 0 0 0 0 0 0 0 0 -0 0 0 0 0 0 -0 -0 -0 -0 -0 -0 0 0 0 0 0 0 0 0 0 0 0 0 0 0 0 0 0 0 0 0 0 0 0
0 0 0 0 0 0 0 0 0 0 0 0 -0 0 -0 0 0 -0 -0 -0 -0 -0 0 0 0 0 0 0 0 0 0 0 0 0 0 0 0 0 0 0 0 0 0 0 0
0 0 0 0 0 0 0 0 -0 -0 0 -0 -0 -0 -0 0 0 0 0 0 0 0 0 0 0 0 0 0 0 0 0 0 0 0 0 0 0 0 0 0 0 0 0 0 0
Wind_Speed_500mb
33 33 34 34 33 34 38 41 44 46 47 47 48 49 52 52 50 48 48 34 36 41 37 31 35 40 37 41 41 27 22 32 42 40 30 14 19 15 14 16 20 18 5 15 55
39 37 34 33 35 37 38 41 46 47 50 52 52 50 49 51 50 60 49 44 25 14 27 32 41 50 53 50 37 30 30 42 30 29 22 17 23 22 14 30 21 20 17 43 68
36 36 36 37 40 42 45 47 48 49 54 56 50 47 43 39 43 6 17 8 11 13 23 32 41 50 55 44 60 49 45 32 42 27 19 26 20 15 21 27 33 39 47 52 84
38 39 41 43 46 47 50 54 51 55 59 58 54 49 36 18 12 8 26 19 18 23 27 40 50 62 47 53 55 43 48 59 41 26 19 26 28 18 28 2 13 30 48 59 82
41 42 45 46 50 53 56 53 55 59 61 60 50 34 22 22 40 35 40 35 35 32 23 35 51 65 55 51 53 49 49 44 52 20 24 17 21 26 22 2 7 30 44 57 76
41 44 48 51 53 58 59 56 60 61 59 50 28 20 16 32 15 19 23 29 34 22 25 29 37 50 48 52 42 42 48 46 35 49 27 21 20 8 18 13 25 36 42 50 63
43 47 52 55 57 62 60 60 62 58 39 33 17 17 29 38 26 27 30 34 23 21 27 32 26 33 43 26 62 43 29 40 35 35 23 28 27 19 16 22 28 34 39 42 51
44 49 56 59 62 63 58 64 59 48 24 33 27 17 20 19 22 25 25 25 24 20 23 34 33 42 40 39 19 41 41 30 40 43 35 28 37 34 24 26 28 35 38 38 45
45 50 56 61 63 59 61 65 42 29 35 13 7 9 21 15 21 31 27 30 34 36 30 25 32 33 28 31 27 31 32 45 38 43 31 33 26 28 41 27 30 33 37 39 41
47 51 58 62 60 52 67 57 38 11 36 12 6 13 13 29 40 40 24 31 37 40 27 31 26 14 25 31 34 37 39 37 39 28 37 31 40 20 22 29 32 32 34 38 40
49 53 58 58 55 50 62 38 30 6 45 19 41 29 37 36 35 21 21 19 23 29 28 39 21 30 32 48 41 43 37 43 28 27 35 38 38 26 24 28 34 38 36 37 38
50 55 59 54 45 47 39 27 18 25 30 37 29 33 31 27 34 21 19 14 11 17 28 6 29 39 36 34 39 43 33 40 17 27 23 30 31 32 31 25 27 32 34 45 34
50 55 58 50 36 34 26 34 35 21 14 19 11 20 21 26 31 28 28 18 19 26 24 34 12 31 27 34 17 22 35 31 21 19 20 16 25 28 28 18 18 18 28 40 41
49 55 55 46 19 40 18 48 38 7 7 11 7 4 28 40 9 22 13 9 6 19 23 22 8 13 23 35 29 13 21 18 28 28 21 25 13 38 33 23 26 27 32 36 40
49 54 43 41 45 26 46 47 18 4 11 21 17 19 44 20 35 4 14 13 10 18 9 1 13 24 27 26 24 8 9 19 27 20 16 21 9 15 40 27 28 28 32 34 44
46 48 34 40 36 32 48 31 5 8 7 19 23 34 43 33 28 13 6 14 7 8 16 6 8 6 3 18 21 21 15 4 13 14 10 18 17 22 21 27 32 31 33 32 35
44 39 30 45 41 43 42 7 8 8 32 24 34 41 34 37 18 28 20 7 5 8 15 11 6 10 5 17 18 21 25 6 7 8 9 12 20 6 15 10 12 26 36 33 38
41 25 32 44 40 42 20 9 8 22 16 33 32 39 19 34 23 30 26 27 12 13 9 11 8 2 12 3 10 31 25 7 15 15 15 10 15 9 14 15 15 23 38 27 33
37 7 22 38 33 28 14 11 11 15 23 23 39 19 20 29 20 22 25 24 20 20 14 6 9 11 8 5 12 15 10 4 4 6 10 16 12 12 13 14 17 19 23 30 28
30 4 23 38 25 18 8 6 10 18 23 20 11 18 26 30 25 29 29 23 33 20 13 9 4 5 5 4 11 5 12 6 5 5 7 7 8 13 13 15 18 20 21 30 24
14 4 26 31 17 15 7 8 9 19 23 10 14 14 25 21 25 20 24 10 31 19 13 12 5 5 5 3 6 6 5 4 5 4 4 8 8 7 4 2 11 19 23 33 33
8 3 25 24 10 7 8 9 16 18 24 7 11 16 19 30 11 20 20 14 35 28 14 12 8 5 8 5 4 12 8 4 5 5 2 6 8 6 2 5 13 21 29 29 26
7 6 13 18 6 9 8 9 11 18 17 14 9 20 23 15 11 17 25 9 25 28 17 12 4 4 5 6 5 4 4 4 6 5 2 6 8 12 14 13 15 24 30 26 24
6 3 8 18 7 6 9 11 20 15 8 16 11 21 28 15 19 14 27 17 23 31 25 12 5 7 9 7 5 5 6 11 2 7 8 8 20 17 17 17 16 20 26 23 20
5 2 4 4 8 6 2 7 18 18 11 17 7 24 19 9 16 15 22 25 22 30 20 11 8 6 8 8 5 3 6 6 5 6 5 6 21 15 12 9 11 17 19 19 15
0 2 1 1 4 4 2 7 16 18 5 11 12 27 21 10 10 21 21 14 9 22 15 15 5 6 2 9 10 4 4 7 5 7 11 10 11 10 11 11 6 10 17 20 18
5 4 4 3 2 5 5 7 14 19 6 16 18 21 20 12 28 35 30 16 9 11 11 14 9 6 5 6 6 4 5 1 5 3 3 7 11 9 9 8 7 4 10 15 18
Wind_Direction_500mb
6 8 7 2 356 353 348 343 337 332 325 321 318 317 314 311 307 304 283 265 259 239 242 225 222 214 208 216 218 229 234 239 240 238 251 199 207 211 231 177 178 171 106 137 174
3 3 1 357 353 348 342 338 335 330 325 319 320 318 316 313 312 298 277 267 257 260 235 224 218 206 209 209 206 211 229 234 247 246 257 274 223 196 209 200 183 165 137 158 168
357 357 356 350 347 346 343 337 333 328 322 320 318 315 314 316 314 260 156 214 249 255 241 236 230 212 218 213 208 215 235 239 242 282 269 277 240 223 227 206 207 188 158 167 167
351 351 349 349 345 343 339 337 335 330 324 319 316 315 307 306 290 216 221 267 275 284 272 241 230 225 217 224 219 229 231 234 254 245 250 252 248 219 229 327 285 192 171 162 171
348 346 346 346 342 341 338 336 335 329 322 318 318 323 315 266 256 270 275 277 290 302 279 240 225 227 226 224 219 229 238 230 230 225 231 245 236 238 226 101 147 153 167 166 172
343 343 346 345 342 339 336 337 336 326 321 316 318 328 290 271 266 285 288 301 299 286 257 243 240 234 246 229 229 229 236 249 231 223 226 214 212 232 197 153 148 160 170 172 173
342 345 344 345 340 338 336 337 336 322 321 314 299 328 279 263 295 299 292 291 275 280 258 240 262 249 236 237 242 240 235 230 208 213 208 218 223 218 160 166 156 163 167 173 176
344 346 345 343 339 336 335 338 335 318 329 313 292 295 262 279 293 308 315 292 268 267 282 245 242 247 267 220 241 219 235 230 219 220 215 204 227 210 170 178 170 164 166 170 177
345 346 344 343 339 336 338 339 339 317 350 322 354 260 269 298 312 308 302 289 269 267 282 239 220 221 229 236 223 197 211 219 217 205 208 207 228 208 170 186 180 171 166 169 174
345 345 343 342 340 340 341 349 350 327 343 327 304 281 246 323 317 310 315 296 271 258 259 210 211 195 225 217 214 203 217 209 223 183 211 207 234 155 174 189 215 185 171 169 171
344 343 342 342 341 344 351 355 7 276 338 287 289 280 293 312 320 320 320 310 278 227 234 206 210 213 212 210 224 223 216 228 195 161 195 212 221 203 189 186 194 203 185 166 163
343 342 341 343 343 347 3 23 7 311 305 306 275 272 285 308 312 331 339 293 277 259 237 178 232 231 224 214 225 247 246 211 208 164 206 217 213 193 176 184 176 181 196 163 162
343 342 341 345 347 351 355 356 334 318 278 294 273 291 309 313 305 307 323 312 288 270 246 235 233 239 220 191 174 216 213 195 172 168 196 231 227 222 215 202 173 172 171 176 182
342 342 343 349 357 336 341 333 335 344 297 38 1 34 329 326 267 313 323 311 261 277 266 242 132 254 193 170 180 198 240 248 172 177 197 206 230 207 201 200 194 169 165 166 175
342 342 347 351 343 345 330 335 342 50 326 1 348 328 333 325 320 308 331 311 264 295 269 307 199 174 206 162 168 133 260 179 183 195 156 202 216 259 192 198 197 173 161 160 174
341 342 347 351 348 319 332 336 355 253 340 343 339 337 337 345 346 307 301 306 289 297 248 265 108 8 312 149 169 145 161 328 278 225 222 204 208 201 184 203 188 164 158 158 164
342 342 354 350 338 337 337 345 283 4 352 347 331 332 323 349 337 349 341 305 289 239 180 138 123 79 17 140 170 189 158 145 180 195 228 258 203 150 114 85 12 140 157 154 162
345 352 0 357 344 338 355 288 355 3 347 323 317 311 350 3 336 346 353 8 21 337 157 190 157 95 22 282 186 198 187 212 209 194 172 158 220 146 98 86 80 104 135 148 157
346 347 3 355 347 349 325 40 360 4 335 314 314 342 350 1 342 347 12 18 10 359 346 320 85 72 359 358 328 167 198 21 134 257 176 166 145 139 133 136 128 132 145 153 158
350 349 348 353 353 7 46 55 1 4 329 312 327 352 344 348 342 354 9 31 351 357 337 0 113 70 130 80 27 308 127 195 234 183 213 166 170 83 161 162 149 153 154 159 156
14 303 345 352 27 41 46 8 330 343 356 313 334 316 345 349 329 354 16 25 359 323 323 334 294 90 158 22 82 159 165 26 306 328 315 154 106 23 42 77 165 151 161 165 160
26 314 355 1 39 360 27 349 330 331 349 331 305 326 352 330 316 0 358 360 348 340 359 1 330 107 75 60 71 301 134 196 270 141 61 289 89 3 23 101 125 145 161 163 163
348 329 352 31 40 20 354 358 345 339 339 353 327 348 327 322 323 359 353 21 354 1 2 343 40 163 173 163 146 245 169 114 121 228 33 307 77 65 102 113 113 134 157 164 170
334 318 23 47 60 356 5 1 358 345 326 344 302 343 340 326 337 306 347 346 348 8 2 336 47 17 7 17 347 156 169 198 239 244 152 70 119 88 93 115 129 147 171 176 180
24 58 21 9 43 49 18 338 356 360 343 352 338 357 347 298 312 348 347 337 336 5 358 7 24 16 39 23 42 104 174 173 218 38 4 117 119 103 77 81 131 180 189 198 211
201 200 291 169 323 345 10 357 331 344 299 337 334 334 330 298 7 316 334 356 12 331 341 345 33 340 349 39 7 59 63 135 40 92 84 129 112 95 98 110 111 200 214 228 240
164 142 176 190 233 276 34 333 305 337 277 261 300 316 315 346 313 292 289 286 307 333 325 345 336 319 94 33 341 182 35 75 81 355 2 211 69 118 115 100 108 166 220 235 244
Wind_Speed_850mb
33 33 34 34 33 34 38 41 44 46 47 47 48 49 52 52 50 48 48 34 36 41 37 31 35 40 37 41 41 27 22 32 42 40 30 14 19 15 14 16 20 18 5 15 55
39 37 34 33 35 37 38 41 46 47 50 52 52 50 49 51 50 60 49 44 25 14 27 32 41 50 53 50 37 30 30 42 30 29 22 17 23 22 14 30 21 20 17 43 68
36 36 36 37 40 42 45 47 48 49 54 56 50 47 43 39 43 6 17 8 11 13 23 32 41 50 55 44 60 49 45 32 42 27 19 26 20 15 21 27 33 39 47 52 84
38 39 41 43 46 47 50 54 51 55 59 58 54 49 36 18 12 8 26 19 18 23 27 40 50 62 47 53 55 43 48 59 41 26 19 26 28 18 28 2 13 30 48 59 82
41 42 45 46 50 53 56 53 55 59 61 60 50 34 22 22 40 35 40 35 35 32 23 35 51 65 55 51 53 49 49 44 52 20 24 17 21 26 22 2 7 30 44 57 76
41 44 48 51 53 58 59 56 60 61 59 50 28 20 16 32 15 19 23 29 34 22 25 29 37 50 48 52 42 42 48 46 35 49 27 21 20 8 18 13 25 36 42 50 63
43 47 52 55 57 62 60 60 62 58 39 33 17 17 29 38 26 27 30 34 23 21 27 32 26 33 43 26 62 43 29 40 35 35 23 28 27 19 16 22 28 34 39 42 51
44 49 56 59 62 63 58 64 59 48 24 33 27 17 20 19 22 25 25 25 24 20 23 34 33 42 40 39 19 41 41 30 40 43 35 28 37 34 24 26 28 35 38 38 45
45 50 56 61 63 59 61 65 42 29 35 13 7 9 21 15 21 31 27 30 34 36 30 25 32 33 28 31 27 31 32 45 38 43 31 33 26 28 41 27 30 33 37 39 41
47 51 58 62 60 52 67 57 38 11 36 12 6 13 13 29 40 40 24 31 37 40 27 31 26 14 25 31 34 37 39 37 39 28 37 31 40 20 22 29 32 32 34 38 40
49 53 58 58 55 50 62 38 30 6 45 19 41 29 37 36 35 21 21 19 23 29 28 39 21 30 32 48 41 43 37 43 28 27 35 38 38 26 24 28 34 38 36 37 38
50 55 59 54 45 47 39 27 18 25 30 37 29 33 31 27 34 21 19 14 11 17 28 6 29 39 36 34 39 43 33 40 17 27 23 30 31 32 31 25 27 32 34 45 34
50 55 58 50 36 34 26 34 35 21 14 19 11 20 21 26 31 28 28 18 19 26 24 34 12 31 27 34 17 22 35 31 21 19 20 16 25 28 28 18 18 18 28 40 41
49 55 55 46 19 40 18 48 38 7 7 11 7 4 28 40 9 22 13 9 6 19 23 22 8 13 23 35 29 13 21 18 28 28 21 25 13 38 33 23 26 27 32 36 40
49 54 43 41 45 26 46 47 18 4 11 21 17 19 44 20 35 4 14 13 10 18 9 1 13 24 27 26 24 8 9 19 27 20 16 21 9 15 40 27 28 28 32 34 44
46 48 34 40 36 32 48 31 5 8 7 19 23 34 43 33 28 13 6 14 7 8 16 6 8 6 3 18 21 21 15 4 13 14 10 18 17 22 21 27 32 31 33 32 35
44 39 30 45 41 43 42 7 8 8 32 24 34 41 34 37 18 28 20 7 5 8 15 11 6 10 5 17 18 21 25 6 7 8 9 12 20 6 15 10 12 26 36 33 38
41 25 32 44 40 42 20 9 8 22 16 33 32 39 19 34 23 30 26 27 12 13 9 11 8 2 12 3 10 31 25 7 15 15 15 10 15 9 14 15 15 23 38 27 33
37 7 22 38 33 28 14 11 11 15 23 23 39 19 20 29 20 22 25 24 20 20 14 6 9 11 8 5 12 15 10 4 4 6 10 16 12 12 13 14 17 19 23 30 28
30 4 23 38 25 18 8 6 10 18 23 20 11 18 26 30 25 29 29 23 33 20 13 9 4 5 5 4 11 5 12 6 5 5 7 7 8 13 13 15 18 20 21 30 24
14 4 26 31 17 15 7 8 9 19 23 10 14 14 25 21 25 20 24 10 31 19 13 12 5 5 5 3 6 6 5 4 5 4 4 8 8 7 4 2 11 19 23 33 33
8 3 25 24 10 7 8 9 16 18 24 7 11 16 19 30 11 20 20 14 35 28 14 12 8 5 8 5 4 12 8 4 5 5 2 6 8 6 2 5 13 21 29 29 26
7 6 13 18 6 9 8 9 11 18 17 14 9 20 23 15 11 17 25 9 25 28 17 12 4 4 5 6 5 4 4 4 6 5 2 6 8 12 14 13 15 24 30 26 24
6 3 8 18 7 6 9 11 20 15 8 16 11 21 28 15 19 14 27 17 23 31 25 12 5 7 9 7 5 5 6 11 2 7 8 8 20 17 17 17 16 20 26 23 20
5 2 4 4 8 6 2 7 18 18 11 17 7 24 19 9 16 15 22 25 22 30 20 11 8 6 8 8 5 3 6 6 5 6 5 6 21 15 12 9 11 17 19 19 15
0 2 1 1 4 4 2 7 16 18 5 11 12 27 21 10 10 21 21 14 9 22 15 15 5 6 2 9 10 4 4 7 5 7 11 10 11 10 11 11 6 10 17 20 18
5 4 4 3 2 5 5 7 14 19 6 16 18 21 20 12 28 35 30 16 9 11 11 14 9 6 5 6 6 4 5 1 5 3 3 7 11 9 9 8 7 4 10 15 18
Wind_Direction_850mb
6 8 7 2 356 353 348 343 337 332 325 321 318 317 314 311 307 304 283 265 259 239 242 225 222 214 208 216 218 229 234 239 240 238 251 199 207 211 231 177 178 171 106 137 174
3 3 1 357 353 348 342 338 335 330 325 319 320 318 316 313 312 298 277 267 257 260 235 224 218 206 209 209 206 211 229 234 247 246 257 274 223 196 209 200 183 165 137 158 168
357 357 356 350 347 346 343 337 333 328 322 320 318 315 314 316 314 260 156 214 249 255 241 236 230 212 218 213 208 215 235 239 242 282 269 277 240 223 227 206 207 188 158 167 167
351 351 349 349 345 343 339 337 335 330 324 319 316 315 307 306 290 216 221 267 275 284 272 241 230 225 217 224 219 229 231 234 254 245 250 252 248 219 229 327 285 192 171 162 171
348 346 346 346 342 341 338 336 335 329 322 318 318 323 315 266 256 270 275 277 290 302 279 240 225 227 226 224 219 229 238 230 230 225 231 245 236 238 226 101 147 153 167 166 172
343 343 346 345 342 339 336 337 336 326 321 316 318 328 290 271 266 285 288 301 299 286 257 243 240 234 246 229 229 229 236 249 231 223 226 214 212 232 197 153 148 160 170 172 173
342 345 344 345 340 338 336 337 336 322 321 314 299 328 279 263 295 299 292 291 275 280 258 240 262 249 236 237 242 240 235 230 208 213 208 218 223 218 160 166 156 163 167 173 176
344 346 345 343 339 336 335 338 335 318 329 313 292 295 262 279 293 308 315 292 268 267 282 245 242 247 267 220 241 219 235 230 219 220 215 204 227 210 170 178 170 164 166 170 177
345 346 344 343 339 336 338 339 339 317 350 322 354 260 269 298 312 308 302 289 269 267 282 239 220 221 229 236 223 197 211 219 217 205 208 207 228 208 170 186 180 171 166 169 174
345 345 343 342 340 340 341 349 350 327 343 327 304 281 246 323 317 310 315 296 271 258 259 210 211 195 225 217 214 203 217 209 223 183 211 207 234 155 174 189 215 185 171 169 171
344 343 342 342 341 344 351 355 7 276 338 287 289 280 293 312 320 320 320 310 278 227 234 206 210 213 212 210 224 223 216 228 195 161 195 212 221 203 189 186 194 203 185 166 163
343 342 341 343 343 347 3 23 7 311 305 306 275 272 285 308 312 331 339 293 277 259 237 178 232 231 224 214 225 247 246 211 208 164 206 217 213 193 176 184 176 181 196 163 162
343 342 341 345 347 351 355 356 334 318 278 294 273 291 309 313 305 307 323 312 288 270 246 235 233 239 220 191 174 216 213 195 172 168 196 231 227 222 215 202 173 172 171 176 182
342 342 343 349 357 336 341 333 335 344 297 38 1 34 329 326 267 313 323 311 261 277 266 242 132 254 193 170 180 198 240 248 172 177 197 206 230 207 201 200 194 169 165 166 175
342 342 347 351 343 345 330 335 342 50 326 1 348 328 333 325 320 308 331 311 264 295 269 307 199 174 206 162 168 133 260 179 183 195 156 202 216 259 192 198 197 173 161 160 174
341 342 347 351 348 319 332 336 355 253 340 343 339 337 337 345 346 307 301 306 289 297 248 265 108 8 312 149 169 145 161 328 278 225 222 204 208 201 184 203 188 164 158 158 164
342 342 354 350 338 337 337 345 283 4 352 347 331 332 323 349 337 349 341 305 289 239 180 138 123 79 17 140 170 189 158 145 180 195 228 258 203 150 114 85 12 140 157 154 162
345 352 0 357 344 338 355 288 355 3 347 323 317 311 350 3 336 346 353 8 21 337 157 190 157 95 22 282 186 198 187 212 209 194 172 158 220 146 98 86 80 104 135 148 157
346 347 3 355 347 349 325 40 360 4 335 314 314 342 350 1 342 347 12 18 10 359 346 320 85 72 359 358 328 167 198 21 134 257 176 166 145 139 133 136 128 132 145 153 158
350 349 348 353 353 7 46 55 1 4 329 312 327 352 344 348 342 354 9 31 351 357 337 0 113 70 130 80 27 308 127 195 234 183 213 166 170 83 161 162 149 153 154 159 156
14 303 345 352 27 41 46 8 330 343 356 313 334 316 345 349 329 354 16 25 359 323 323 334 294 90 158 22 82 159 165 26 306 328 315 154 106 23 42 77 165 151 161 165 160
26 314 355 1 39 360 27 349 330 331 349 331 305 326 352 330 316 0 358 360 348 340 359 1 330 107 75 60 71 301 134 196 270 141 61 289 89 3 23 101 125 145 161 163 163
348 329 352 31 40 20 354 358 345 339 339 353 327 348 327 322 323 359 353 21 354 1 2 343 40 163 173 163 146 245 169 114 121 228 33 307 77 65 102 113 113 134 157 164 170
334 318 23 47 60 356 5 1 358 345 326 344 302 343 340 326 337 306 347 346 348 8 2 336 47 17 7 17 347 156 169 198 239 244 152 70 119 88 93 115 129 147 171 176 180
24 58 21 9 43 49 18 338 356 360 343 352 338 357 347 298 312 348 347 337 336 5 358 7 24 16 39 23 42 104 174 173 218 38 4 117 119 103 77 81 131 180 189 198 211
201 200 291 169 323 345 10 357 331 344 299 337 334 334 330 298 7 316 334 356 12 331 341 345 33 340 349 39 7 59 63 135 40 92 84 129 112 95 98 110 111 200 214 228 240
164 142 176 190 233 276 34 333 305 337 277 261 300 316 315 346 313 292 289 286 307 333 325 345 336 319 94 33 341 182 35 75 81 355 2 211 69 118 115 100 108 166 220 235 244